Regional Weather Roundup
Issued by NWS

Home | Current Version | Previous Version | Graphics & Text | Print | Product List | Glossary On
Versions: 1 2 3 4 5 6 7 8 9 10 11 12 13 14 15 16 17 18 19 20 21 22 23 24 25 26 27 28 29 30 31 32 33 34 35 36 37 38 39 40 41 42 43 44 45 46 47 48 49 50
000
ASUS45 KBOU 261807
RWRCO

WEATHER ROUNDUP FOR COLORADO
NATIONAL WEATHER SERVICE DENVER/BOULDER CO
1100 AM MST SUN FEB 26 2017

NOTE: "FAIR" INDICATES FEW OR NO CLOUDS BELOW 12000 FEET WITH NO
SIGNIFICANT WEATHER AND/OR OBSTRUCTIONS TO VISIBILITY.

COZ001>005-013-030-031-261900-
...NORTHWEST COLORADO...

CITY           SKY/WX    TMP DP  RH WIND       PRES   REMARKS
CRAIG          FAIR      22   6  50 VRB3      29.92F
HAYDEN         FAIR      18   3  53 SE7       29.90F WCI   8
MEEKER         FAIR      20   8  60 SE3       29.92F
MOUNT WERNER   NOT AVBL
STEAMBOAT SPGS FAIR      13   2  61 CALM      29.89F
WALDEN         NOT AVBL
$$

COZ006>008-011-261900-
...WEST CENTRAL VALLEYS...

CITY           SKY/WX    TMP DP  RH WIND       PRES   REMARKS
GRAND JUNCTION FAIR      35   9  33 SE6       29.96F WCI  30
MONTROSE       FAIR      33  12  41 CALM      29.96F
EAGLE          SUNNY     30   7  37 CALM      29.93
RIFLE          FAIR      28   9  44 CALM      29.96F
DELTA          FAIR      36   8  31 CALM      29.96F
NUCLA          FAIR      34  14  44 S5        29.97F WCI  30
$$

COZ017>023-064>068-261900-
...SOUTHWEST COLORADO...

CITY           SKY/WX    TMP DP  RH WIND       PRES   REMARKS
DURANGO        PTSUNNY   35  10  35 W17       29.91R WCI  25
CORTEZ         PTSUNNY   35  16  45 CALM      29.94F
PAGOSA SPRINGS FAIR      31   5  32 S10       29.88F WCI  22
TELLURIDE      FAIR      22   3  43 W7        29.88S WCI  14
WOLF CREEK PAS CLOUDY     9   9 100 S17G25    29.83R FOG     WCI -10
$$

COZ009-010-012-014-032>034-037-058>063-261900-
...CENTRAL COLORADO...

CITY           SKY/WX    TMP DP  RH WIND       PRES   REMARKS
ASPEN          FAIR      23  -2  33 N5        29.85S WCI  17
BUENA VISTA    FAIR      29  -8  19 W21G32    29.79S WCI  15
COPPER MTN     FAIR       9 -13  37 MISG      29.71R
BERTHOUD PASS  FAIR      -4 -15  59 NW20G29   29.64R WCI -27
COTTONWOOD PAS FAIR      21 -11  23 W21G38    29.72F WCI   6
GUNNISON       FAIR      16   7  67 E7        29.91S WCI   6
KREMMLING      FAIR      27  10  50 SE7       29.88F WCI  19
LEADVILLE      FAIR      15  -9  33 MISG      29.76S
MONARCH PASS   FAIR       3  -2  78 W39G49    29.80R WCI -24
SALIDA         FAIR      32  -4  21 SW24G31   29.88S WCI  19
SUNLIGHT       NOT AVBL
WILKERSON PASS FAIR      16 -13  27 SW9G22    29.70R WCI   4
$$

COZ069>075-261900-
...SAN LUIS VALLEY/SANGRE DE CRISTO MOUNTAINS...

CITY           SKY/WX    TMP DP  RH WIND       PRES   REMARKS
ALAMOSA        FAIR      29   7  39 S7        29.86S WCI  22
LA VETA PASS   FAIR      21   5  49 S24G38    29.74S WCI   4
SAGUACHE       FAIR      30   1  29 NW17G28   29.86R WCI  18
$$

COZ035-036-038>040-261900-
...NORTHERN COLORADO FRONT RANGE...

CITY           SKY/WX    TMP DP  RH WIND       PRES   REMARKS
DENVER INTL AP FAIR      34   1  24 SE7       29.79F WCI  28
DMNS CITY PARK   N/A     37  -8  14 W5G10     29.79S
AURORA         MOSUNNY   35  -4  18 NW7       29.79S WCI  29
FRONT RANGE AP NOT AVBL
ERIE MUNI ARPT FAIR      35  -1  21 CALM      29.81S
BOULDER MUN AP FAIR      32  10  40 NW5       29.80S WCI  27
CENTENNIAL     FAIR      33  -7  17 VRB3      29.78S
BROOMFIELD     SUNNY     32   0  25 E3        29.79S
FORT COLLINS   FAIR      31  13  47 VRB3      29.83F
LONGMONT       FAIR      36  11  35 CALM      29.83F
$$

COZ041-046-047-076>085-087-088-261900-
...PIKES PEAK/PALMER DIVIDE AND SOUTHERN FOOTHILLS...

CITY           SKY/WX    TMP DP  RH WIND       PRES   REMARKS
COLO. SPRINGS  FAIR      36  -7  15 VRB3      29.79F
A. F. ACADEMY  FAIR      36  -6  16 S9        29.75F
SCHRIEVER AFB  FAIR      34  -6  17 S5        29.80S WCI  29
ELLICOTT       NOT AVBL
FALCON         FAIR      33  -9  16 S8        29.78S WCI  26
FORT CARSON    FAIR      37  -2  18 N3        29.78F
LIMON          FAIR      33   2  26 S12       29.83S WCI  24
MONUMENT HILL  FAIR      32  -6  19 SW9       29.77S WCI  24
TRINIDAD       FAIR      40   4  22 VRB3      29.82F
$$

COZ042>045-048>051-090-091-261900-
...NORTHEAST COLORADO...

CITY           SKY/WX    TMP DP  RH WIND       PRES   REMARKS
GREELEY ARPT   FAIR      35  12  38 SE13      29.85F WCI  26
AKRON          FAIR      31  11  43 SE10      29.86F WCI  22
BURLINGTON     FAIR      39   9  29 E6G17     29.88S
WRAY           NOT AVBL
STERLING       FAIR      32  16  51 W6        29.87F WCI  26
HOLYOKE        FAIR      37  12  35 NW8       29.90F
FORT MORGAN    FAIR      31  13  47 SE7       29.87S WCI  24
$$

COZ086-089-092>099-261900-
...SOUTHEAST COLORADO...

CITY           SKY/WX    TMP DP  RH WIND       PRES   REMARKS
PUEBLO         FAIR      44   1  16 SW12      29.82F
LA JUNTA       FAIR      40   9  28 E6        29.86F
LAMAR          FAIR      38   8  29 CALM      29.88F
SPRINGFIELD      N/A     44   2  17 VRB5      29.86F
$$



USA.gov is the U.S. government's official web portal to all federal, state and local government web resources and services.